CDT,Max TemperatureF,Mean TemperatureF,Min TemperatureF,Max Dew PointF,MeanDew PointF,Min DewpointF,Max Humidity, Mean Humidity, Min Humidity, Max Sea Level PressureIn, Mean Sea Level PressureIn, Min Sea Level PressureIn, Max VisibilityMiles, Mean VisibilityMiles, Min VisibilityMiles, Max Wind SpeedMPH, Mean Wind SpeedMPH, Max Gust SpeedMPH,PrecipitationIn, CloudCover, Events, WindDirDegrees
2013-3-1,37,34,32,36,33,32,100,97,87,30.06,30.01,29.96,10,3,0,10,5,,0.12,8,Fog-Rain-Snow,117
2013-3-2,32,29,26,32,28,22,100,90,69,30.16,30.05,29.98,10,5,1,14,7,18,0.01,8,Rain-Snow,163
2013-3-3,34,26,17,25,21,15,96,82,54,30.17,30.13,30.09,10,7,1,13,4,18,0.00,6,Snow,150
2013-3-4,50,32,14,32,22,12,96,57,33,30.23,30.11,29.99,10,10,9,10,4,18,0.00,2,Rain,333
2013-3-5,51,41,30,52,43,23,100,95,71,29.94,29.77,29.60,10,2,0,28,11,40,1.29,8,Fog-Rain-Snow,7
2013-3-6,33,30,28,29,28,23,93,89,75,30.35,30.12,29.87,10,5,1,18,13,25,0.00,8,Snow,115
2013-3-7,34,31,28,28,27,26,100,85,76,30.44,30.40,30.32,10,9,3,7,5,,0.00,8,,172
2013-3-8,50,36,23,30,27,21,92,68,41,30.49,30.42,30.37,10,10,5,12,6,,0.00,1,,235
2013-3-9,66,47,28,39,29,26,92,51,23,30.36,30.24,30.12,10,10,10,12,3,21,0.00,0,,334
2013-3-10,70,61,52,36,31,29,42,31,24,30.12,30.02,29.90,10,10,9,20,12,33,0.00,0,,353
2013-3-11,61,50,38,55,49,33,100,90,48,29.98,29.83,29.74,10,5,0,24,15,34,0.92,7,Fog-Rain,42
2013-3-12,48,39,28,34,31,26,93,75,48,30.17,30.08,29.96,10,10,10,10,7,,0.00,5,,102
2013-3-13,38,33,28,31,23,17,96,68,41,30.43,30.27,30.14,10,9,2,17,8,23,0.00,6,Snow,123
2013-3-14,45,30,14,30,19,13,96,62,32,30.47,30.39,30.28,10,10,8,8,4,,0.00,2,,85
2013-3-15,68,49,30,44,36,27,89,63,35,30.25,30.05,29.89,10,10,10,16,5,21,0.00,1,,46
2013-3-16,72,64,52,51,48,44,77,57,44,29.97,29.85,29.81,10,10,6,20,13,26,0.00,3,Rain,74
2013-3-17,53,45,37,48,44,38,100,93,71,30.07,29.98,29.93,10,4,1,16,5,23,0.13,6,Rain,221
2013-3-18,61,48,34,56,52,35,100,94,77,29.99,29.80,29.73,10,5,0,31,8,37,1.10,7,Fog-Rain-Thunderstorm,52
2013-3-19,50,39,28,37,26,12,100,61,22,30.22,30.14,29.98,10,10,7,16,8,24,0.00,1,,110
2013-3-20,50,35,20,26,20,13,92,60,32,30.21,30.12,29.99,10,10,10,21,6,33,0.00,0,,107
2013-3-21,36,25,14,16,13,9,88,60,37,30.11,30.08,30.05,10,10,10,15,6,25,0.00,1,,138
2013-3-22,41,28,15,26,17,11,88,60,34,30.15,30.09,30.06,10,10,10,6,1,,0.00,5,,16
2013-3-23,54,46,37,38,32,25,76,61,49,30.06,29.98,29.81,10,10,10,12,2,,0.00,5,,62
2013-3-24,55,45,34,54,44,29,100,96,68,29.81,29.56,29.32,10,4,0,34,7,45,0.75,8,Fog-Rain-Thunderstorm,349
2013-3-25,35,32,30,32,30,27,100,87,75,30.08,29.84,29.60,10,3,0,22,16,31,0.02,8,Fog-Rain-Snow,269
2013-3-26,37,34,30,32,30,28,100,89,70,30.35,30.17,30.04,10,7,2,14,10,20,0.00,8,Rain-Snow,288
2013-3-27,45,34,22,30,25,21,96,72,40,30.42,30.37,30.31,10,10,10,10,3,16,0.00,3,,299
2013-3-28,52,35,18,29,23,17,96,68,31,30.43,30.39,30.34,10,10,7,10,2,16,0.00,0,,305
2013-3-29,45,34,24,43,38,22,100,92,79,30.40,30.32,30.25,10,8,2,7,1,,0.06,6,Rain,163
2013-3-30,57,48,39,50,44,40,100,86,60,30.27,30.14,29.98,10,7,2,9,2,,0.12,6,Rain,146
2013-3-31,55,44,34,54,47,35,100,94,77,29.95,29.92,29.86,10,6,0,14,7,18,0.02,5,Fog-Rain,247